GW1728 Weather Reports


Display with metric or nautical units.
time (UTC)temp
F
wind
direction
speed
MPH
gust
MPH
rain 1hr
in
rain 24hr
in
rain mn
in
humidity
%
barometer
mb
20260509061314 58 312 2.0 3.0 0.00 0.00 0.00 56 1013.4
20260509060811 58 348 5.0 7.0 0.00 0.00 0.00 55 1013.3
20260509060308 58 310 6.0 9.0 0.00 0.00 0.00 55 1013.2
20260509055803 58 328 11.0 17.0 0.00 0.00 0.00 55 1013.3
20260509055259 58 320 2.0 3.0 0.00 0.00 0.00 56 1013.1
20260509054755 58 352 4.0 6.0 0.00 0.00 0.00 56 1013.0
20260509054252 59 346 3.0 3.0 0.00 0.00 0.00 55 1013.1
20260509053751 59 321 3.0 3.0 0.00 0.00 0.00 54 1013.0
20260509053248 59 331 5.0 7.0 0.00 0.00 0.00 54 1012.9
20260509052746 59 1 5.0 8.0 0.00 0.00 0.00 54 1012.9
20260509052243 60 318 4.0 6.0 0.00 0.00 0.00 53 1012.9
20260509051740 60 271 6.0 10.0 0.00 0.00 0.00 53 1012.6
20260509051239 60 335 6.0 9.0 0.00 0.00 0.00 52 1012.7
20260509050735 60 325 3.0 5.0 0.00 0.00 0.00 51 1012.7
20260509050231 61 298 8.0 13.0 0.00 0.00 0.00 50 1012.6
20260509045729 61 311 3.0 6.0 0.00 0.00 0.00 50 1012.5
20260509045225 61 306 5.0 6.0 0.00 0.00 0.00 49 1012.5
20260509044723 62 325 5.0 6.0 0.00 0.00 0.00 47 1012.5
20260509044220 62 285 5.0 6.0 0.00 0.00 0.00 45 1012.2
20260509043716 62 347 3.0 5.0 0.00 0.00 0.00 45 1012.1
20260509043213 63 326 1.0 2.0 0.00 0.00 0.00 43 1012.1
20260509042709 63 346 5.0 8.0 0.00 0.00 0.00 42 1012.2
20260509042205 63 288 1.0 1.0 0.00 0.00 0.00 41 1012.1
20260509041702 63 305 5.0 8.0 0.00 0.00 0.00 37 1012.2
20260509041200 61 304 1.0 1.0 0.00 0.00 0.00 38 1012.0
20260509040658 61 298 1.0 1.0 0.00 0.00 0.00 38 1012.0
20260509040154 61 258 0.0 1.0 0.00 0.00 0.00 37 1011.9
20260509035651 61 239 0.0 0.0 0.00 0.00 0.00 37 1011.6
20260509035148 60 235 3.0 3.0 0.00 0.00 0.00 38 1011.5
20260509034645 60 236 0.0 0.0 0.00 0.00 0.00 39 1011.6
20260509034142 61 241 0.0 0.0 0.00 0.00 0.00 40 1011.6
20260509033639 62 244 0.0 0.0 0.00 0.00 0.00 38 1011.6
20260509033136 63 239 0.0 0.0 0.00 0.00 0.00 37 1011.6
20260509032634 64 241 0.0 0.0 0.00 0.00 0.00 35 1011.3
20260509032130 66 239 0.0 1.0 0.00 0.00 0.00 32 1011.4
20260509031628 67 262 1.0 1.0 0.00 0.00 0.00 29 1011.3
20260509031125 67 299 8.0 15.0 0.00 0.00 0.00 30 1011.3
20260509030624 67 186 5.0 8.0 0.00 0.00 0.00 26 1011.0
20260509030120 68 8 3.0 5.0 0.00 0.00 0.00 26 1011.1
20260509025616 67 352 6.0 11.0 0.00 0.00 0.00 25 1011.0
20260509025112 67 275 1.0 1.0 0.00 0.00 0.00 28 1010.7
20260509024608 68 271 1.0 2.0 0.00 0.00 0.00 25 1010.6
20260509024104 68 318 3.0 3.0 0.00 0.00 0.00 25 1010.6
20260509023602 69 340 2.0 2.0 0.00 0.00 0.00 25 1010.5
20260509023059 69 290 1.0 2.0 0.00 0.00 0.00 23 1010.4
20260509022555 69 317 4.0 6.0 0.00 0.00 0.00 24 1010.5
20260509022053 69 311 5.0 10.0 0.00 0.00 0.00 24 1010.5
20260509021550 69 357 11.0 17.0 0.00 0.00 0.00 23 1010.5
20260509021047 67 298 1.0 1.0 0.00 0.00 0.00 28 1010.3
20260509020545 68 257 0.0 0.0 0.00 0.00 0.00 26 1010.2
20260509020041 69 272 1.0 2.0 0.00 0.00 0.00 23 1010.2
20260509015541 69 354 4.0 6.0 0.00 0.00 0.00 22 1009.9
20260509015037 69 354 2.0 2.0 0.00 0.00 0.00 23 1009.7
20260509014534 69 354 3.0 3.0 0.00 0.00 0.00 23 1009.6
20260509014030 70 344 4.0 6.0 0.00 0.00 0.00 23 1009.5
20260509013528 70 1 6.0 7.0 0.00 0.00 0.00 22 1009.7
20260509013023 71 19 6.0 7.0 0.00 0.00 0.00 22 1009.5
20260509012520 71 12 8.0 11.0 0.00 0.00 0.00 21 1009.5
20260509012016 71 356 5.0 8.0 0.00 0.00 0.00 21 1009.7
20260509011515 71 340 3.0 3.0 0.00 0.00 0.00 21 1009.7
20260509011012 72 341 3.0 3.0 0.00 0.00 0.00 21 1009.7
20260509010509 72 345 3.0 3.0 0.00 0.00 0.00 20 1009.7
20260509010006 72 352 3.0 3.0 0.00 0.00 0.00 20 1009.5
20260509005504 72 350 3.0 5.0 0.00 0.00 0.00 20 1009.7
20260509005004 72 313 2.0 3.0 0.00 0.00 0.00 19 1009.4
20260509004501 73 9 10.0 13.0 0.00 0.00 0.00 19 1009.5
20260509003958 73 352 7.0 9.0 0.00 0.00 0.00 19 1009.5
20260509003456 73 345 5.0 7.0 0.00 0.00 0.00 19 1009.7
20260509002953 73 346 6.0 8.0 0.00 0.00 0.00 19 1009.4
20260509002451 73 0 4.0 6.0 0.00 0.00 0.00 20 1009.4
20260509001948 73 345 6.0 7.0 0.00 0.00 0.00 19 1009.5
20260509001444 74 346 3.0 3.0 0.00 0.00 0.00 20 1009.5
20260509000941 74 355 8.0 9.0 0.00 0.00 0.00 19 1009.5
20260509000440 74 1 8.0 9.0 0.00 0.00 0.00 19 1009.7
20260508235935 74 322 7.0 9.0 0.00 0.00 0.00 19 1009.6
20260508235433 74 322 6.0 8.0 0.00 0.00 0.00 20 1009.5
20260508234929 74 358 6.0 10.0 0.00 0.00 0.00 20 1009.5
20260508234426 75 321 3.0 5.0 0.00 0.00 0.00 20 1009.4
20260508233924 75 323 8.0 10.0 0.00 0.00 0.00 20 1009.3
20260508233423 75 359 9.0 10.0 0.00 0.00 0.00 19 1009.4
20260508232919 76 12 7.0 9.0 0.00 0.00 0.00 20 1009.4
20260508232416 76 314 8.0 9.0 0.00 0.00 0.00 19 1009.5
20260508231914 77 344 7.0 9.0 0.00 0.00 0.00 20 1009.5
20260508231410 76 2 7.0 11.0 0.00 0.00 0.00 19 1009.5
20260508230907 76 308 4.0 6.0 0.00 0.00 0.00 20 1009.5
20260508230404 76 286 4.0 7.0 0.00 0.00 0.00 20 1009.4
20260508225901 77 308 4.0 5.0 0.00 0.00 0.00 20 1009.3
20260508225358 78 356 15.0 20.0 0.00 0.00 0.00 18 1009.7
20260508224856 78 322 6.0 8.0 0.00 0.00 0.00 19 1009.4
20260508224353 78 313 7.0 10.0 0.00 0.00 0.00 18 1009.5
20260508223851 78 23 5.0 6.0 0.00 0.00 0.00 20 1009.4
20260508223348 77 352 9.0 11.0 0.00 0.00 0.00 20 1009.6
20260508222845 78 343 6.0 8.0 0.00 0.00 0.00 20 1009.5
20260508222342 78 293 6.0 8.0 0.00 0.00 0.00 19 1009.4
20260508221838 79 305 3.0 6.0 0.00 0.00 0.00 20 1009.6
20260508221334 79 6 5.0 7.0 0.00 0.00 0.00 20 1009.5
20260508220831 78 310 2.0 2.0 0.00 0.00 0.00 20 1009.5
20260508220327 79 339 6.0 10.0 0.00 0.00 0.00 19 1009.6
20260508215824 77 351 4.0 7.0 0.00 0.00 0.00 20 1009.5
20260508215321 78 319 5.0 7.0 0.00 0.00 0.00 19 1009.5
20260508214818 78 4 7.0 10.0 0.00 0.00 0.00 20 1009.6
20260508214315 78 345 5.0 6.0 0.00 0.00 0.00 20 1009.7
20260508213811 80 335 4.0 6.0 0.00 0.00 0.00 21 1009.7
20260508213308 79 34 6.0 8.0 0.00 0.00 0.00 20 1009.8
20260508212804 78 9 4.0 6.0 0.00 0.00 0.00 21 1009.7
20260508212301 78 343 3.0 6.0 0.00 0.00 0.00 20 1009.9
20260508211756 79 303 4.0 6.0 0.00 0.00 0.00 21 1009.8
20260508211252 78 259 6.0 11.0 0.00 0.00 0.00 20 1009.8
20260508210750 78 302 5.0 8.0 0.00 0.00 0.00 18 1010.2
20260508210247 78 288 4.0 6.0 0.00 0.00 0.00 18 1009.9
20260508205743 78 237 2.0 3.0 0.00 0.00 0.00 20 1009.9
20260508205240 77 329 6.0 9.0 0.00 0.00 0.00 19 1010.0
20260508204736 78 5 2.0 2.0 0.00 0.00 0.00 19 1010.0
20260508204233 78 330 4.0 8.0 0.00 0.00 0.00 19 1009.9
20260508203729 78 294 1.0 2.0 0.00 0.00 0.00 21 1010.2
20260508203225 78 306 3.0 3.0 0.00 0.00 0.00 20 1010.3
20260508202716 78 231 5.0 7.0 0.00 0.00 0.00 20 1010.3
20260508202213 78 249 4.0 6.0 0.00 0.00 0.00 20 1010.4
20260508201710 77 9 7.0 10.0 0.00 0.00 0.00 21 1010.2
20260508201206 78 332 6.0 7.0 0.00 0.00 0.00 20 1010.3
20260508200704 77 301 4.0 5.0 0.00 0.00 0.00 23 1010.3
20260508200159 77 277 3.0 5.0 0.00 0.00 0.00 21 1010.4
20260508195656 77 256 5.0 6.0 0.00 0.00 0.00 22 1010.0
20260508195153 76 289 3.0 3.0 0.00 0.00 0.00 22 1010.4
20260508194649 75 323 9.0 11.0 0.00 0.00 0.00 22 1010.5
20260508194146 77 292 2.0 3.0 0.00 0.00 0.00 24 1010.5
20260508193643 77 309 4.0 6.0 0.00 0.00 0.00 23 1010.4
20260508193140 76 337 3.0 5.0 0.00 0.00 0.00 23 1010.5
20260508192636 75 302 3.0 5.0 0.00 0.00 0.00 24 1010.6
20260508192133 76 308 5.0 7.0 0.00 0.00 0.00 24 1010.6
20260508191625 74 314 5.0 8.0 0.00 0.00 0.00 27 1010.7
20260508191121 75 240 6.0 7.0 0.00 0.00 0.00 28 1010.8
20260508190619 75 356 3.0 3.0 0.00 0.00 0.00 28 1010.9
20260508190115 72 323 3.0 3.0 0.00 0.00 0.00 28 1011.0
20260508185612 74 309 5.0 8.0 0.00 0.00 0.00 27 1011.0
20260508185109 74 278 1.0 1.0 0.00 0.00 0.00 27 1011.0
20260508184607 72 319 1.0 2.0 0.00 0.00 0.00 30 1011.4
20260508184104 73 349 3.0 3.0 0.00 0.00 0.00 29 1011.4
20260508183600 72 356 4.0 5.0 0.00 0.00 0.00 30 1011.4
20260508183056 71 28 7.0 8.0 0.00 0.00 0.00 28 1011.7
20260508182552 74 303 4.0 6.0 0.00 0.00 0.00 28 1011.5
20260508182049 73 284 3.0 3.0 0.00 0.00 0.00 30 1011.8
20260508181544 72 346 5.0 8.0 0.00 0.00 0.00 29 1011.8
20260508181042 73 359 5.0 7.0 0.00 0.00 0.00 30 1011.9
20260508180538 72 337 3.0 3.0 0.00 0.00 0.00 32 1011.9
20260508180035 73 326 5.0 6.0 0.00 0.00 0.00 31 1011.8
20260508175531 73 293 2.0 3.0 0.00 0.00 0.00 32 1012.1
20260508175029 71 271 3.0 5.0 0.00 0.00 0.00 32 1012.0
20260508174526 71 2 3.0 6.0 0.00 0.00 0.00 34 1012.2
20260508174023 69 317 2.0 2.0 0.00 0.00 0.00 36 1012.2
20260508173520 69 348 6.0 7.0 0.00 0.00 0.00 33 1012.2
20260508173016 70 309 2.0 3.0 0.00 0.00 0.00 35 1012.3
20260508172513 70 280 2.0 3.0 0.00 0.00 0.00 34 1012.2
20260508172010 70 253 1.0 2.0 0.00 0.00 0.00 36 1012.3
20260508171506 69 274 2.0 3.0 0.00 0.00 0.00 36 1012.2
20260508171003 69 315 3.0 3.0 0.00 0.00 0.00 38 1012.5
20260508170500 70 244 1.0 2.0 0.00 0.00 0.00 39 1012.7
20260508165957 68 244 0.0 1.0 0.00 0.00 0.00 40 1012.5
20260508165455 69 222 1.0 2.0 0.00 0.00 0.00 39 1012.6
20260508164950 68 240 1.0 1.0 0.00 0.00 0.00 40 1012.6
20260508164448 68 287 3.0 3.0 0.00 0.00 0.00 38 1012.6
20260508163944 68 214 2.0 3.0 0.00 0.00 0.00 40 1012.6
20260508163442 67 303 3.0 3.0 0.00 0.00 0.00 42 1012.7
20260508162938 67 269 2.0 3.0 0.00 0.00 0.00 42 1012.9
20260508162436 68 288 3.0 5.0 0.00 0.00 0.00 43 1012.7
20260508161932 66 290 2.0 2.0 0.00 0.00 0.00 45 1012.8
20260508161429 66 352 3.0 3.0 0.00 0.00 0.00 44 1013.1
20260508160927 65 240 3.0 3.0 0.00 0.00 0.00 46 1012.9
20260508160426 64 227 0.0 0.0 0.00 0.00 0.00 46 1012.9
20260508155921 64 201 1.0 2.0 0.00 0.00 0.00 48 1013.1
20260508155419 64 211 2.0 2.0 0.00 0.00 0.00 48 1013.0
20260508154915 64 316 1.0 2.0 0.00 0.00 0.00 50 1013.1
20260508154413 63 293 3.0 3.0 0.00 0.00 0.00 50 1013.1
20260508153909 63 183 0.0 0.0 0.00 0.00 0.00 50 1013.1
20260508153407 62 179 2.0 3.0 0.00 0.00 0.00 52 1013.2
20260508152903 60 238 3.0 3.0 0.00 0.00 0.00 54 1013.2
20260508152359 59 218 3.0 3.0 0.00 0.00 0.00 56 1013.6
20260508151856 59 221 4.0 5.0 0.00 0.00 0.00 57 1013.6
20260508151353 58 210 3.0 3.0 0.00 0.00 0.00 57 1013.3
20260508150849 58 230 5.0 6.0 0.00 0.00 0.00 59 1013.6
20260508150346 57 229 2.0 2.0 0.00 0.00 0.00 60 1013.4
20260508145842 57 241 3.0 3.0 0.00 0.00 0.00 61 1013.8
20260508145338 56 197 5.0 6.0 0.00 0.00 0.00 62 1013.8
20260508144835 56 201 3.0 3.0 0.00 0.00 0.00 63 1013.4
20260508144333 55 211 5.0 6.0 0.00 0.00 0.00 65 1013.8
20260508143830 55 213 5.0 6.0 0.00 0.00 0.00 66 1013.8
20260508143327 54 233 3.0 3.0 0.00 0.00 0.00 67 1014.0
20260508142824 53 206 4.0 5.0 0.00 0.00 0.00 67 1013.9
20260508142321 53 234 3.0 3.0 0.00 0.00 0.00 68 1014.0
20260508141817 52 216 4.0 5.0 0.00 0.00 0.00 70 1013.8
20260508141314 52 234 3.0 3.0 0.00 0.00 0.00 70 1013.9
20260508140812 51 245 5.0 6.0 0.00 0.00 0.00 72 1013.9
20260508140309 51 244 3.0 3.0 0.00 0.00 0.00 73 1014.1
20260508135804 50 236 4.0 5.0 0.00 0.00 0.00 73 1014.2
20260508135301 50 209 3.0 3.0 0.00 0.00 0.00 74 1014.0
20260508134756 49 272 1.0 2.0 0.00 0.00 0.00 76 1014.1
20260508134254 49 263 5.0 6.0 0.00 0.00 0.00 77 1014.1
20260508133750 48 231 3.0 3.0 0.00 0.00 0.00 79 1014.1
20260508133248 48 243 4.0 5.0 0.00 0.00 0.00 79 1014.2
20260508132746 47 229 4.0 5.0 0.00 0.00 0.00 81 1014.1
20260508132243 46 263 5.0 6.0 0.00 0.00 0.00 82 1013.9
20260508131738 46 248 3.0 5.0 0.00 0.00 0.00 83 1014.1
20260508131235 45 234 5.0 6.0 0.00 0.00 0.00 83 1014.0
20260508130731 45 236 4.0 5.0 0.00 0.00 0.00 83 1014.0
20260508130229 45 231 4.0 5.0 0.00 0.00 0.00 84 1013.9
20260508125724 45 228 3.0 3.0 0.00 0.00 0.00 85 1014.3
20260508125221 44 241 3.0 3.0 0.00 0.00 0.00 85 1014.2
20260508124719 44 223 0.0 0.0 0.00 0.00 0.00 84 1014.0
20260508124216 44 223 0.0 0.0 0.00 0.00 0.00 84 1014.1
20260508123714 43 224 4.0 5.0 0.00 0.00 0.00 85 1013.9
20260508123212 42 229 3.0 3.0 0.00 0.00 0.00 86 1014.0
20260508122708 41 246 2.0 2.0 0.00 0.00 0.00 87 1014.1
20260508122205 41 251 0.0 0.0 0.00 0.00 0.00 88 1014.0
20260508121703 40 254 0.0 0.0 0.00 0.00 0.00 89 1014.0
20260508121201 39 256 0.0 0.0 0.00 0.00 0.00 89 1014.2
20260508120658 39 263 0.0 0.0 0.00 0.00 0.00 90 1014.0
20260508120156 39 264 0.0 0.0 0.00 0.00 0.00 90 1014.1
20260508115653 38 267 0.0 0.0 0.00 0.00 0.00 89 1014.1
20260508115150 38 267 0.0 0.0 0.00 0.00 0.00 88 1013.9
20260508114647 39 275 0.0 0.0 0.00 0.00 0.00 88 1014.0
20260508114144 39 285 0.0 0.0 0.00 0.00 0.00 88 1014.0
20260508113640 39 285 0.0 0.0 0.00 0.00 0.00 88 1014.1
20260508113139 39 288 0.0 0.0 0.00 0.00 0.00 87 1014.1
20260508112634 40 290 0.0 0.0 0.00 0.00 0.00 87 1014.1
20260508112132 41 293 0.0 0.0 0.00 0.00 0.00 87 1014.1
20260508111628 40 300 0.0 0.0 0.00 0.00 0.00 86 1014.1
20260508111126 40 262 0.0 0.0 0.00 0.00 0.00 85 1014.1
20260508110623 41 260 0.0 0.0 0.00 0.00 0.00 86 1014.0
20260508110119 41 260 0.0 0.0 0.00 0.00 0.00 86 1014.1
20260508105614 40 260 0.0 0.0 0.00 0.00 0.00 86 1014.1
20260508105112 40 258 0.0 0.0 0.00 0.00 0.00 85 1014.2
20260508104609 40 248 0.0 0.0 0.00 0.00 0.00 85 1014.1
20260508104105 40 248 0.0 0.0 0.00 0.00 0.00 85 1014.2
20260508103603 40 249 0.0 0.0 0.00 0.00 0.00 84 1014.0
20260508103100 41 249 0.0 0.0 0.00 0.00 0.00 83 1014.2
20260508102557 42 216 0.0 0.0 0.00 0.00 0.00 82 1014.0
20260508102055 42 216 0.0 0.0 0.00 0.00 0.00 82 1014.1
20260508101552 42 216 0.0 0.0 0.00 0.00 0.00 81 1014.1
20260508101049 42 216 0.0 0.0 0.00 0.00 0.00 81 1014.2
20260508100547 41 211 0.0 0.0 0.00 0.00 0.00 82 1014.2
20260508100044 41 211 0.0 0.0 0.00 0.00 0.00 82 1014.4
20260508095541 42 211 0.0 0.0 0.00 0.00 0.00 82 1014.3
20260508095038 42 211 0.0 0.0 0.00 0.00 0.00 81 1014.2
20260508094535 42 210 0.0 0.0 0.00 0.00 0.00 80 1014.1
20260508094032 42 210 0.0 0.0 0.00 0.00 0.00 81 1014.2
20260508093528 42 210 0.0 0.0 0.00 0.00 0.00 80 1014.3
20260508093027 42 213 3.0 3.0 0.00 0.00 0.00 81 1014.2
20260508092524 41 254 0.0 0.0 0.00 0.00 0.00 82 1014.1
20260508092023 41 257 0.0 0.0 0.00 0.00 0.00 82 1014.2
20260508091519 41 267 0.0 0.0 0.00 0.00 0.00 84 1014.1
20260508091016 41 278 0.0 0.0 0.00 0.00 0.00 83 1014.1
20260508090514 41 283 0.0 0.0 0.00 0.00 0.00 83 1014.1
20260508090010 42 286 0.0 0.0 0.00 0.00 0.00 81 1014.2
20260508085507 42 287 0.0 0.0 0.00 0.00 0.00 80 1014.1
20260508085004 43 289 0.0 0.0 0.00 0.00 0.00 79 1014.2
20260508084501 44 295 0.0 0.0 0.00 0.00 0.00 78 1014.2
20260508083958 45 300 0.0 0.0 0.00 0.00 0.00 77 1014.3
20260508083455 46 307 0.0 0.0 0.00 0.00 0.00 76 1014.2
20260508082950 47 322 1.0 1.0 0.00 0.00 0.00 75 1014.1
20260508082447 47 325 2.0 2.0 0.00 0.00 0.00 75 1014.1
20260508081945 47 326 2.0 2.0 0.00 0.00 0.00 74 1014.0
20260508081442 47 337 3.0 3.0 0.00 0.00 0.00 73 1014.1
20260508080938 47 321 1.0 2.0 0.00 0.00 0.00 73 1014.0
20260508080437 48 322 1.0 2.0 0.00 0.00 0.00 71 1014.0
20260508075933 48 327 3.0 3.0 0.00 0.00 0.00 72 1014.1
20260508075430 48 347 3.0 5.0 0.00 0.00 0.00 72 1014.4
20260508074928 48 333 2.0 2.0 0.00 0.00 0.00 71 1014.1
20260508074425 48 320 2.0 2.0 0.00 0.00 0.00 70 1014.1
20260508073921 49 324 2.0 2.0 0.00 0.00 0.00 68 1014.3
20260508073420 49 292 2.0 2.0 0.00 0.00 0.00 69 1014.3
20260508072916 49 287 0.0 1.0 0.00 0.00 0.00 70 1014.1
20260508072412 50 292 0.0 0.0 0.00 0.00 0.00 69 1014.1
20260508071910 50 288 0.0 0.0 0.00 0.00 0.00 69 1014.2
20260508071408 49 269 1.0 2.0 0.00 0.00 0.00 71 1014.3
20260508070905 48 262 0.0 0.0 0.00 0.00 0.00 73 1014.3
20260508070403 48 262 0.0 0.0 0.00 0.00 0.00 75 1014.2
20260508065901 48 262 0.0 0.0 0.00 0.00 0.00 75 1014.2
20260508065358 48 262 0.0 0.0 0.00 0.00 0.00 74 1014.1
20260508064856 48 262 0.0 0.0 0.00 0.00 0.00 73 1014.3
20260508064353 48 263 0.0 0.0 0.00 0.00 0.00 74 1014.2
20260508063851 48 263 0.0 0.0 0.00 0.00 0.00 73 1014.0
20260508063349 48 288 0.0 1.0 0.00 0.00 0.00 73 1013.9
20260508062846 48 289 0.0 0.0 0.00 0.00 0.00 73 1013.7
20260508062343 48 294 0.0 0.0 0.00 0.00 0.00 73 1013.8
20260508061840 48 303 0.0 0.0 0.00 0.00 0.00 73 1013.8